CARTOSAT-2F

Last updated on Wed Sep 17 2025 00:02:31 GMT+0000 (Coordinated Universal Time)

1 43111U 18004A 25259.61042132 .00005112 00000+0 24594-3 0 9990 2 43111 97.4451 318.5868 0001918 121.9063 238.2359 15.19225379425795
UTC large
Height (km)
Speed (km/s)
/
Latitude / Longitude
Inclination (degrees)
Orbital Period (minutes)
Azimuth
Elevation
Range (km)
Doppler Factor

Next 0 passes for location: London (51.5072 / 0.1276)

Sorry there are no passes over London.